Simultaneous Nadir Overpasses (SNOs) Predictions

Prediction of SNOs between AQUA and NPP Satellite Orbit:

Table of predicted SNOs for the next 14.0 days since TLE Epoch: 10/10/2020
Index Date (AQUA) Time (AQUA) Lat,Lon (AQUA) SZA (AQUA ) Date (NPP) Time (NPP) Lat,Lon (NPP) SZA (NPP ) Distance(km) Time Diff (sec)
1 10/10/2020 05:32:33 74.94, -27.06 104.30 10/10/2020 05:31:19 74.96, -26.99 104.35 2.81 74
2 10/10/2020 06:21:40 -75.99, 143.53 76.81 10/10/2020 06:21:43 -75.99, 143.50 76.81 0.85 3
3 10/12/2020 21:48:51 75.44, 90.16 104.72 10/12/2020 21:48:03 75.44, 90.20 104.75 1.22 48
4 10/12/2020 22:38:02 -76.28, -99.69 76.18 10/12/2020 22:38:31 -76.27, -99.76 76.19 2.04 29
5 10/15/2020 14:05:12 75.77,-153.00 105.30 10/15/2020 14:04:50 75.77,-152.99 105.31 0.25 22
6 10/15/2020 14:54:24 -76.55, 17.10 75.55 10/15/2020 14:55:19 -76.54, 17.00 75.57 2.79 55
7 10/18/2020 05:32:28 -75.11, 153.38 73.10 10/18/2020 05:31:14 -75.12, 153.45 73.05 2.36 74
8 10/18/2020 06:21:33 76.10, -36.13 105.87 10/18/2020 06:21:37 76.10, -36.14 105.87 0.48 4
9 10/18/2020 07:05:53 -79.11,-130.73 90.46 10/18/2020 07:07:05 -78.41,-133.49 90.94 97.71 72
10 10/20/2020 21:48:46 -75.53, -89.57 72.63 10/20/2020 21:47:58 -75.54, -89.51 72.61 2.00 48
11 10/20/2020 22:37:53 76.41, 80.77 106.44 10/20/2020 22:38:23 76.41, 80.75 106.42 0.72 30
12 10/23/2020 14:05:05 -75.95, 27.53 72.18 10/23/2020 14:04:43 -75.95, 27.60 72.18 2.12 22
